Simultaneous Nadir Overpasses (SNOs) Predictions

Prediction of SNOs between METOP-A and NOAA-19 Satellite Orbit:

Table of predicted SNOs for the next 14.0 days since TLE Epoch: 11/18/2013
Index Date (METOP-A) Time (METOP-A) Lat,Lon (METOP-A) SZA (METOP-A ) Date (NOAA-19) Time (NOAA-19) Lat,Lon (NOAA-19) SZA (NOAA-19 ) Distance(km) Time Diff (sec)
1 11/26/2013 18:39:37 74.24,-104.94 95.23 11/26/2013 18:38:29 74.24,-107.39 95.27 73.83 68
2 11/26/2013 19:30:29 -73.75, 61.20 85.25 11/26/2013 19:29:25 -73.73, 61.13 85.26 3.17 64
3 11/26/2013 20:21:09 73.72,-131.55 94.73 11/26/2013 20:20:22 73.70,-131.53 94.72 2.19 47
4 11/26/2013 21:11:52 -73.68, 35.69 85.31 11/26/2013 21:11:28 -73.67, 35.75 85.31 2.12 24
5 11/26/2013 22:02:31 73.69,-156.94 94.72 11/26/2013 22:02:26 73.69,-157.02 94.72 2.59 5
6 11/26/2013 22:53:14 -73.65, 10.29 85.32 11/26/2013 22:53:32 -73.66, 10.26 85.31 1.52 18
7 11/26/2013 23:43:54 73.62, 177.55 94.66 11/26/2013 23:44:29 73.63, 177.60 94.67 2.12 35
8 11/27/2013 00:34:36 -73.63, -15.10 85.33 11/27/2013 00:35:35 -73.61, -15.12 85.35 2.74 59
9 11/27/2013 01:25:18 73.49, 151.92 94.56 11/27/2013 01:26:31 73.52, 152.34 94.57 13.60 73




NCC Satellite Simultaneous Nadir Overpasses (SNOs) Prediction Service
